Location: Putman Mountain Observatory
(30.5430°N, 98.9075°W)
Time: 20:25:09
(UTC-06:00)

ARIANE 6 FM1 Upper Stage - Visible Passes

Search period start: 18 January 2026 00:00
Search period end: 28 January 2026 00:00
Orbit: 522 x 610 km, 62.0° (Epoch: 18 January)

Date Brightness Start Highest point End Pass type
(mag) Time Alt. Az. Time Alt. Az. Time Alt. Az.
18 Jan 2.8 05:41:18 63° SSE 05:41:18 63° SSE 05:44:45 10° SSE visible
18 Jan 2.7 19:30:53 10° SSW 19:34:55 53° ESE 19:34:58 53° ESE visible
19 Jan 3.8 05:42:25 30° S 05:42:25 30° S 05:44:45 10° SSE visible
19 Jan 2.5 19:30:55 10° SSW 19:35:04 90° SSE 19:36:05 50° NNE visible
20 Jan 4.8 05:43:34 15° SSW 05:43:34 15° SSW 05:44:29 10° S visible
20 Jan 3.2 19:31:11 10° SW 19:35:15 54° WNW 19:37:07 28° N visible
21 Jan 4.1 19:31:41 10° WSW 19:35:27 34° NW 19:38:04 17° N visible
22 Jan 4.8 19:32:28 10° WSW 19:35:43 22° NW 19:38:55 10° N visible
23 Jan 5.3 19:33:38 10° W 19:36:00 15° NW 19:38:21 10° NNW visible
